Overview Statistics Trail Chart Weather Telemetry Raw packets
 

This is the latest recevied weather packets stored in our database for station/object K4DNM. If no packets are shown the sender has not sent any weather packets the latest 10 day(s).

<< 93 94 95 96 97 98 99 >>
Time Temp. Humidity Pressure Rain* Wind** Luminosity Snow
1787864080 28.33° C 77% 1012.6 hPa 0 mm - 11 W/m² -
1787863777 28.33° C 77% 1012.8 hPa 0 mm - 14 W/m² -
1787863474 28.33° C 75% 1012.9 hPa 0 mm - 19 W/m² -
1787863175 28.89° C 75% 1012.9 hPa 0 mm - 23 W/m² -
1787862872 28.89° C 73% 1012.9 hPa 0 mm - 29 W/m² -
1787862572 29.44° C 72% 1012.9 hPa 0 mm - 34 W/m² -
1787862334 29.44° C 71% 1013.1 hPa 0 mm - 37 W/m² -
1787861971 30° C 70% 1013 hPa 0 mm - 46 W/m² -
1787861670 30° C 70% 1013 hPa 0 mm - 57 W/m² -
1787861428 30.56° C 68% 1012.8 hPa 0 mm - 75 W/m² -
1787861067 30.56° C 65% 1012.6 hPa 0 mm - 90 W/m² -
1787860768 30.56° C 64% 1012.5 hPa 0 mm - 109 W/m² -
1787860467 30.56° C 63% 1012.7 hPa 0 mm - 115 W/m² -
1787860165 30.56° C 62% 1012.8 hPa 0 mm - 135 W/m² -
1787859861 30.56° C 61% 1012.8 hPa 0 mm - 173 W/m² -
1787859623 31.11° C 62% 1012.9 hPa 0 mm - 170 W/m² -
1787859261 31.11° C 60% 1012.9 hPa 0 mm - 202 W/m² -
1787858961 31.11° C 62% 1012.9 hPa 0 mm - 409 W/m² -
1787858724 31.11° C 62% 1012.9 hPa 0 mm - 148 W/m² -
1787858357 31.67° C 61% 1012.9 hPa 0 mm - 509 W/m² -
1787858119 31.67° C 60% 1013 hPa 0 mm - 671 W/m² -
1787857757 31.11° C 61% 1013 hPa 0 mm - 654 W/m² -
1787857518 31.11° C 60% 1013.1 hPa 0 mm - 738 W/m² -
1787857156 31.11° C 63% 1013.3 hPa 0 mm - 601 W/m² -
1787856856 31.67° C 60% 1013.3 hPa 0 mm - 612 W/m² -

* Rain latest hour (hover to see other rain measurements)
** Current wind speed in m/s (hover to see current wind gust speed)